Location: Brienzwiler
(46.7508°N, 8.1014°E)
Time: 07:25:44
(UTC+00:00)

Cosmos 1825 - Pass Details

Date: 05 July 2020
Orbit: 503 x 508 km, 82.5° (Epoch: 06 August)

Event Time Altitude Azimuth Distance (km) Brightness Sun altitude
Exits shadow 21:58:00 29° 109° (ESE) 947 3.1 -17.4°
Maximum altitude 21:58:34 31° 91° (E) 916 3.2 -17.4°
Drops below altitude 10° 22:01:56 10° 29° (NNE) 1,736 5.4 -17.6°
Sets 22:04:13 0° 19° (NNE) 2,628 6.6 -17.8°
